Home   Weather   Florianópolis   Past weeks

Flag for Brazil Past Weather in Florianópolis, Santa Catarina, Brazil — Yesterday and Last 2 Weeks

Now
75 °F

Sunny.


Feels Like: 76 °F
Forecast: 76 / 87 °F
Wind: 2 mph from West

Location: Florianopolis Aeroporto

Current Time: Feb 24, 2017 at 8:01:18 am

Latest Report: Feb 24, 2017 at 7:00 am


Visibility: 10 mi

Pressure: 29.86 "Hg

Humidity: 78%

Dew Point: 68 °F

Location of FlorianópolisLocation

Past Weather in Florianópolis — Graph

°F

Florianópolis Temperature Yesterday

Maximum temperature yesterday: 91 °F (at 12:00 pm)
Minimum temperature yesterday: 75 °F (at 6:00 am)
Average temperature yesterday: 80 °F

High & Low Weather Summary for the Past Weeks

 TemperatureHumidityPressure
High91 °F (Feb 20, 3:00 pm)100% (Feb 11, 4:00 pm)30.12 "Hg (Feb 11, 4:00 pm)
Low68 °F (Feb 11, 4:00 pm)49% (Feb 20, 1:00 pm)29.77 "Hg (Feb 12, 4:00 pm)
Average81 °F74%29.95 "Hg
* Reported Feb 9 8:00 am — Feb 24 7:00 am, Florianópolis, Weather by CustomWeather, © 2017

Note: Actual official high and low records may vary slightly from our data, if they occured in-between our weather recording intervals... More about our weather records

Advertising

Florianópolis Weather History for the Previous 24 Hours

Scroll right to see more
 ConditionsComfort  
Time TempWeatherWind HumidityBarometerVisibility
7:00 am
Fri, Feb 24
75 °FSunny.2 mph78%29.86 "Hg10 mi
6:00 am73 °FClear.2 mph78%29.83 "Hg10 mi
5:00 am73 °FPassing clouds.6 mph78%29.80 "HgN/A
4:00 am75 °FClear.6 mph83%29.80 "Hg10 mi
3:00 am77 °FClear.No wind79%29.80 "Hg10 mi
2:00 am77 °FClear.No wind69%29.83 "Hg10 mi
1:00 am77 °FPassing clouds.6 mph69%29.83 "HgN/A
12:00 am79 °FPassing clouds.5 mph61%29.83 "HgN/A
11:00 pm
Thu, Feb 23
79 °FPassing clouds.7 mph65%29.86 "HgN/A
10:00 pm79 °FPassing clouds.10 mph65%29.86 "HgN/A
9:00 pm79 °FPartly cloudy.12 mph70%29.86 "HgN/A
8:00 pm79 °FPartly cloudy.9 mph70%29.86 "HgN/A
7:00 pm77 °FPartly cloudy.8 mph79%29.89 "HgN/A
6:00 pm77 °FBroken clouds.7 mph79%29.89 "HgN/A
5:00 pm81 °FScattered showers. Partly sunny.12 mph70%N/AN/A
4:00 pm81 °FScattered showers. Broken clouds.9 mph74%N/AN/A
3:00 pm81 °FBroken clouds.6 mph70%29.86 "HgN/A
2:00 pm79 °FScattered showers. Broken clouds.12 mph61%29.89 "HgN/A
1:00 pm88 °FThundershowers. Broken clouds.10 mph59%N/AN/A
12:00 pm91 °FScattered clouds.3 mph52%29.89 "HgN/A
11:00 am88 °FPassing clouds.3 mph55%29.89 "HgN/A
10:00 am84 °FSunny.7 mph62%29.92 "Hg10 mi
9:00 am81 °FSunny.6 mph74%29.92 "Hg10 mi
8:00 am79 °FSunny.6 mph79%29.92 "Hg10 mi
Weather by CustomWeather, © 2017

See weather overviewHow to use our weather pages